Wind_Speed
54 56 58 55 56 56 58 59 58 57 56 55 58 59 60 57 57 60 61 62 66 68 69 71 70 73 74 75 76 79 81 82 85 87 88 90 94 96 95 99 106 107 104 101
57 59 59 58 58 60 61 60 60 60 58 55 59 62 65 64 64 65 68 68 70 71 71 69 71 73 76 77 79 79 80 80 77 79 83 87 90 91 91 94 97 102 107 107
58 64 63 63 63 64 63 63 63 63 63 64 64 64 69 72 69 72 73 71 71 72 72 72 74 73 76 77 79 79 78 73 69 67 72 80 82 86 88 90 94 97 100 103
59 66 66 65 66 69 69 69 68 70 70 70 69 66 72 77 73 73 73 72 70 72 73 73 75 74 76 79 80 78 75 72 69 65 66 68 75 77 83 87 93 96 100 97
69 71 68 64 68 72 72 72 73 74 75 74 74 73 67 79 72 73 74 73 70 71 73 74 74 75 77 78 78 77 75 76 73 66 59 61 66 71 74 78 85 90 97 101
80 78 74 73 70 70 70 72 77 76 77 75 78 75 66 75 73 74 73 72 71 72 71 71 73 74 76 78 79 77 74 75 74 67 57 55 63 68 71 71 73 82 88 94
86 86 82 80 80 79 76 75 74 74 76 75 83 79 73 75 75 72 71 72 73 71 71 73 73 73 75 79 79 77 75 75 72 69 64 60 62 64 67 70 71 74 80 86
91 90 90 89 85 87 83 80 80 78 75 73 79 75 72 75 73 71 72 73 73 70 71 73 72 73 76 78 78 76 76 74 77 73 71 71 71 68 64 67 70 69 73 81
95 92 97 94 91 91 88 84 90 83 79 76 77 78 75 74 74 74 74 73 70 70 72 72 73 75 74 76 75 75 75 77 79 81 81 80 73 70 65 68 68 66 67 73
93 97 100 101 98 94 93 92 92 88 84 81 77 80 78 75 73 74 73 71 70 71 72 74 75 74 74 75 74 73 74 76 80 85 85 80 76 72 66 67 68 64 65 65
95 95 95 102 101 100 100 98 98 95 89 85 81 82 79 75 74 74 75 76 72 70 73 75 75 74 73 74 74 74 74 76 81 87 86 84 79 71 66 66 64 62 61 57
103 101 98 97 99 102 102 100 101 98 91 90 86 78 78 76 75 76 77 71 68 70 72 74 72 72 72 73 74 75 75 77 82 87 90 85 77 70 65 62 58 57 55 50
98 103 104 102 100 100 99 99 103 103 100 90 88 75 83 80 76 74 69 66 67 71 71 71 70 73 75 73 74 74 75 78 83 88 93 87 76 67 62 58 52 50 46 45
99 101 98 98 98 105 107 102 99 105 101 90 85 82 83 84 80 74 69 63 69 72 70 68 70 72 73 72 74 74 76 78 83 89 93 85 75 65 58 53 47 45 39 44
107 104 95 92 94 100 104 110 104 102 94 95 85 85 83 83 80 73 64 66 69 68 67 66 67 72 72 72 73 74 76 80 84 88 92 84 75 62 54 48 44 42 37 43
103 102 98 91 91 97 101 106 110 99 95 88 86 82 86 83 78 72 66 65 66 65 65 65 69 72 70 72 72 74 76 80 83 86 90 84 72 58 50 43 41 37 36 41
96 98 97 90 91 99 107 96 101 98 97 92 86 82 83 77 76 71 66 64 64 63 65 68 70 70 70 73 71 73 76 79 80 85 88 79 67 54 48 42 41 37 37 42
93 92 92 87 92 101 81 93 99 96 93 95 91 81 78 78 74 69 65 64 63 63 67 68 69 69 71 71 70 74 76 78 81 85 85 75 61 49 47 41 40 37 39 50
85 84 87 87 85 86 85 86 91 92 86 90 91 85 79 76 72 68 66 64 62 64 64 67 67 69 70 68 69 73 76 78 81 87 80 69 53 49 45 39 39 39 43 59
80 80 86 86 76 71 68 78 83 87 84 83 89 85 78 74 70 68 67 63 63 62 65 66 66 68 66 66 68 73 75 78 83 82 73 61 52 47 41 40 39 40 48 68
70 69 69 71 66 55 60 67 75 84 70 82 88 84 77 72 70 68 65 63 62 62 63 64 64 65 63 66 68 73 75 79 84 75 68 55 50 41 37 32 35 41 51 76
60 61 62 62 53 42 52 63 69 68 74 83 85 83 77 69 68 66 64 62 61 62 63 63 62 62 64 64 68 72 74 81 77 70 62 52 42 33 27 24 30 39 52 81
60 56 55 56 43 48 55 61 67 69 75 78 81 82 74 68 66 64 62 60 60 61 62 60 59 62 63 64 68 71 74 81 71 66 55 43 33 25 18 19 27 36 52 79
59 57 56 53 49 46 54 60 65 71 73 75 78 76 69 66 62 61 59 59 58 60 59 59 59 62 63 64 67 68 74 75 67 60 47 36 28 20 15 18 27 37 53 76
54 54 55 51 47 47 53 56 61 67 70 70 73 70 67 63 59 59 59 59 59 59 58 58 58 61 63 65 68 70 77 69 62 51 39 33 20 17 12 19 32 37 50 72
52 52 51 52 50 50 51 53 61 65 69 71 69 67 63 60 59 58 57 58 58 57 57 56 58 61 62 65 67 69 73 64 56 42 37 26 15 13 7 15 21 37 52 71
Wind_Direction
244 246 245 245 245 244 244 246 248 247 247 248 252 255 255 254 255 259 263 265 268 270 273 274 276 279 281 281 279 279 280 281 281 278 276 273 271 268 264 261 258 258 254 252
242 244 245 246 246 248 248 248 249 249 247 247 250 254 259 261 262 266 269 272 275 276 278 279 279 280 281 281 282 283 285 286 282 279 277 274 271 270 267 263 259 256 256 254
244 246 245 246 246 247 248 249 249 251 252 250 249 253 260 263 265 268 271 273 276 279 279 279 280 280 282 284 285 288 288 284 284 281 282 277 274 271 267 264 262 258 253 251
246 248 248 248 248 249 249 249 250 251 252 254 255 255 262 263 266 270 272 275 276 277 280 281 282 285 286 289 290 294 295 293 292 284 285 282 280 272 267 264 261 258 257 250
247 247 246 247 250 251 251 251 252 253 255 256 257 254 259 264 267 268 271 273 274 277 281 282 284 288 289 291 295 298 296 294 293 288 295 294 290 282 271 267 264 260 258 255
245 247 249 248 249 252 252 253 252 253 254 256 259 260 256 264 265 267 270 272 275 278 280 280 284 287 290 292 295 294 291 293 291 289 298 293 299 290 278 269 266 263 257 256
245 247 246 247 250 250 250 252 255 255 256 256 260 261 260 262 264 267 269 272 275 276 277 279 284 287 288 291 294 293 294 295 298 299 301 303 302 295 281 275 272 268 259 252
246 247 249 248 248 250 251 252 254 254 255 257 260 261 261 263 264 266 270 272 273 275 277 279 284 288 289 291 296 296 298 303 302 303 309 312 308 300 287 281 281 270 260 252
246 246 250 248 248 250 251 252 253 254 254 256 259 261 260 261 264 266 268 270 272 275 277 282 285 286 290 296 296 298 303 303 306 307 309 310 310 303 292 288 284 275 265 255
250 246 246 248 247 248 250 250 253 254 254 256 258 262 263 263 263 264 266 268 270 274 278 280 283 288 292 298 300 301 302 305 306 305 307 312 312 304 294 291 286 277 267 256
247 248 248 250 248 246 247 249 251 252 256 257 257 259 261 262 263 264 265 266 272 275 277 280 284 291 296 301 298 300 302 303 304 306 309 313 311 305 295 294 288 278 267 256
247 246 245 248 249 249 249 248 251 252 253 251 254 258 262 263 261 262 265 271 273 275 278 282 288 291 295 299 298 301 301 303 306 307 309 311 313 305 296 296 288 276 267 252
248 245 245 243 246 251 249 247 249 250 249 252 254 257 261 259 261 262 265 268 272 273 276 281 287 289 292 299 298 300 301 305 306 307 308 312 314 305 299 298 288 274 263 250
253 248 243 243 244 245 248 247 247 249 250 250 252 251 253 260 260 263 264 268 269 271 276 280 285 289 294 298 298 300 303 304 305 305 307 312 315 305 299 297 286 271 260 243
256 253 246 242 240 243 245 247 243 247 249 250 248 250 254 257 260 263 266 265 268 273 278 284 287 291 295 298 299 300 303 304 305 305 307 313 316 304 299 294 281 266 252 235
254 254 252 243 241 241 242 244 247 241 247 249 248 249 250 253 257 260 263 267 271 274 280 283 286 290 295 298 299 299 303 305 306 307 309 315 313 302 297 292 273 259 245 228
252 254 251 246 242 240 240 243 246 245 241 245 247 244 248 252 256 259 260 264 268 274 277 281 285 291 296 296 298 300 304 306 308 308 309 314 310 299 296 286 266 251 236 216
253 252 252 246 243 243 242 241 245 244 242 241 243 245 246 248 252 256 259 262 267 272 276 280 286 291 294 296 297 302 306 308 309 307 311 312 308 298 295 282 259 242 225 205
248 247 247 246 243 242 240 241 244 243 239 238 239 240 243 246 250 254 258 262 267 271 276 281 287 292 293 295 301 305 306 308 310 307 313 311 305 296 292 277 252 235 215 199
244 242 243 246 240 241 238 238 240 240 237 237 236 238 239 242 247 250 256 261 266 270 275 281 287 291 295 297 301 304 307 311 312 312 313 311 303 302 287 268 244 229 209 195
242 241 241 244 242 234 235 237 235 234 232 232 232 234 237 240 244 250 254 260 265 269 275 281 287 290 291 296 302 306 309 313 313 314 316 309 307 296 283 267 237 222 205 195
238 237 237 237 235 225 229 227 232 228 225 227 229 229 233 238 243 248 253 257 261 267 273 279 285 288 291 298 304 307 312 315 314 316 314 312 308 300 283 257 224 215 204 196
235 234 234 234 228 217 217 213 220 222 222 222 227 230 231 236 242 247 252 258 262 268 273 281 285 287 293 300 305 310 315 317 316 317 313 317 317 303 280 238 211 205 202 196
227 226 227 227 223 214 218 215 218 223 219 220 225 228 230 233 239 245 251 257 263 268 275 280 285 288 295 301 305 312 317 317 317 315 316 325 318 296 255 215 198 197 199 194
225 225 223 223 217 209 213 216 218 219 217 219 221 225 231 235 240 244 250 258 263 269 275 281 284 288 295 302 308 315 319 317 316 313 320 326 308 282 249 214 198 194 194 192
217 220 219 223 216 212 213 214 215 213 214 218 219 222 229 234 239 246 254 258 264 269 275 279 283 289 297 302 309 316 320 315 314 316 323 322 302 281 230 195 197 195 188 188
Height
10823 10822 10821 10827 10828 10830 10830 10831 10834 10837 10841 10844 10843 10841 10842 10850 10854 10853 10855 10860 10859 10858 10856 10854 10852 10847 10843 10842 10838 10835 10830 10827 10822 10815 10809 10805 10799 10799 10805 10808 10809 10812 10820 10828
10809 10807 10809 10813 10815 10816 10818 10821 10822 10823 10828 10836 10832 10831 10828 10833 10837 10839 10838 10842 10841 10839 10838 10838 10835 10832 10826 10823 10818 10816 10810 10805 10799 10792 10786 10779 10775 10773 10775 10776 10778 10782 10790 10798
10797 10789 10796 10798 10800 10802 10804 10806 10810 10812 10815 10817 10821 10825 10818 10814 10824 10823 10822 10827 10824 10819 10819 10819 10817 10815 10810 10803 10799 10796 10791 10785 10778 10773 10766 10754 10752 10749 10746 10746 10746 10750 10758 10767
10782 10772 10778 10784 10785 10785 10789 10792 10796 10795 10796 10801 10808 10817 10806 10799 10811 10807 10805 10809 10810 10804 10801 10801 10795 10794 10789 10782 10777 10773 10766 10760 10756 10754 10747 10735 10724 10725 10721 10717 10716 10719 10723 10737
10760 10755 10761 10769 10767 10768 10774 10777 10778 10779 10782 10787 10785 10798 10797 10786 10796 10791 10792 10792 10794 10790 10787 10781 10778 10774 10768 10761 10755 10751 10746 10739 10735 10733 10727 10717 10706 10696 10697 10692 10688 10690 10693 10702
10737 10740 10749 10750 10753 10752 10756 10759 10757 10765 10767 10776 10753 10780 10792 10774 10781 10777 10777 10777 10777 10775 10773 10767 10763 10759 10751 10744 10740 10735 10731 10723 10716 10712 10703 10695 10686 10674 10667 10666 10665 10660 10666 10670
10721 10722 10727 10731 10732 10733 10738 10740 10742 10747 10748 10757 10742 10758 10771 10765 10761 10764 10764 10764 10762 10760 10758 10754 10749 10744 10737 10730 10725 10716 10710 10701 10693 10687 10680 10671 10661 10655 10646 10637 10639 10636 10635 10641
10700 10703 10704 10708 10715 10709 10721 10724 10724 10724 10731 10736 10728 10745 10749 10745 10749 10749 10746 10746 10745 10745 10742 10737 10734 10728 10722 10716 10706 10696 10688 10677 10670 10662 10653 10645 10637 10627 10620 10613 10610 10607 10606 10609
10676 10688 10674 10686 10695 10692 10699 10709 10695 10709 10713 10718 10716 10717 10728 10733 10733 10733 10730 10728 10731 10729 10724 10721 10716 10712 10707 10698 10688 10678 10667 10657 10647 10638 10631 10627 10616 10604 10596 10588 10581 10579 10578 10580
10651 10659 10656 10654 10668 10674 10675 10681 10679 10686 10694 10699 10705 10697 10705 10712 10717 10715 10713 10714 10715 10713 10710 10704 10697 10696 10690 10680 10669 10659 10652 10643 10631 10622 10612 10603 10595 10584 10574 10566 10555 10554 10552 10553
10621 10626 10635 10630 10646 10649 10650 10654 10657 10664 10675 10680 10684 10681 10685 10694 10696 10696 10696 10694 10702 10698 10690 10685 10681 10679 10671 10662 10654 10645 10637 10629 10617 10603 10592 10585 10574 10565 10553 10545 10536 10532 10530 10532
10589 10597 10608 10613 10614 10620 10628 10637 10633 10643 10654 10652 10661 10674 10670 10672 10673 10673 10676 10686 10683 10676 10672 10666 10665 10662 10655 10649 10638 10628 10619 10610 10599 10586 10574 10566 10557 10545 10534 10526 10518 10513 10511 10515
10556 10565 10576 10589 10595 10597 10604 10609 10608 10613 10622 10641 10645 10665 10641 10646 10652 10658 10665 10671 10664 10656 10655 10655 10653 10647 10640 10634 10623 10613 10604 10594 10582 10570 10557 10549 10539 10527 10517 10509 10501 10498 10498 10500
10518 10526 10547 10565 10572 10564 10566 10580 10588 10583 10601 10626 10634 10632 10630 10620 10633 10641 10648 10654 10644 10639 10642 10643 10640 10629 10624 10618 10606 10597 10588 10580 10569 10556 10541 10533 10523 10510 10501 10493 10487 10483 10485 10487
10476 10489 10519 10538 10543 10537 10542 10542 10561 10567 10586 10593 10611 10612 10610 10608 10613 10624 10633 10628 10624 10626 10625 10626 10618 10611 10608 10600 10590 10581 10573 10564 10552 10539 10525 10517 10506 10494 10487 10479 10473 10471 10474 10478
10450 10461 10478 10503 10515 10514 10515 10515 10524 10559 10566 10579 10586 10596 10587 10591 10602 10609 10611 10609 10607 10609 10612 10608 10602 10596 10594 10584 10576 10567 10559 10548 10535 10520 10507 10500 10490 10478 10472 10466 10460 10460 10464 10469
10428 10430 10447 10468 10479 10476 10472 10514 10512 10529 10545 10556 10564 10569 10567 10582 10584 10591 10595 10595 10593 10597 10596 10592 10587 10584 10579 10569 10563 10553 10546 10532 10518 10504 10493 10485 10473 10463 10457 10454 10449 10449 10454 10461
10403 10410 10413 10432 10441 10438 10498 10488 10484 10502 10517 10528 10541 10552 10559 10561 10568 10575 10578 10577 10582 10583 10580 10576 10573 10570 10563 10555 10548 10540 10529 10516 10502 10487 10478 10468 10458 10449 10444 10440 10438 10440 10447 10454
10373 10378 10385 10393 10412 10432 10451 10468 10466 10477 10499 10503 10515 10528 10537 10547 10553 10559 10560 10564 10568 10566 10565 10561 10560 10556 10549 10542 10534 10525 10514 10502 10486 10470 10462 10452 10444 10435 10432 10429 10427 10431 10438 10447
10342 10355 10356 10367 10385 10409 10441 10435 10443 10451 10477 10488 10494 10507 10520 10529 10539 10540 10544 10551 10551 10553 10549 10548 10547 10541 10535 10528 10522 10512 10500 10486 10470 10457 10447 10436 10427 10424 10418 10414 10416 10422 10430 10439
10320 10335 10343 10357 10369 10400 10413 10414 10418 10427 10471 10465 10472 10488 10502 10513 10521 10526 10533 10536 10538 10537 10535 10534 10534 10528 10523 10517 10510 10497 10486 10472 10454 10446 10433 10423 10415 10409 10404 10403 10406 10413 10424 10434
10306 10315 10328 10340 10356 10383 10390 10393 10405 10426 10431 10441 10453 10470 10483 10498 10505 10512 10519 10523 10525 10524 10523 10522 10521 10515 10510 10506 10497 10485 10473 10456 10443 10433 10420 10413 10404 10398 10393 10394 10399 10407 10418 10434
10290 10304 10315 10326 10351 10358 10361 10377 10383 10398 10414 10431 10441 10452 10473 10483 10490 10498 10504 10508 10510 10510 10508 10510 10507 10501 10497 10493 10485 10474 10461 10444 10431 10421 10410 10404 10396 10390 10387 10387 10392 10402 10414 10433
10273 10291 10302 10315 10331 10345 10352 10364 10373 10386 10401 10417 10430 10444 10459 10467 10478 10485 10491 10494 10497 10496 10497 10496 10494 10488 10484 10480 10473 10464 10448 10433 10422 10409 10405 10399 10390 10384 10381 10384 10389 10395 10407 10427
10264 10278 10291 10307 10322 10335 10341 10351 10366 10378 10391 10408 10423 10437 10446 10457 10466 10472 10478 10482 10483 10484 10485 10484 10481 10476 10473 10468 10460 10451 10437 10423 10414 10401 10399 10394 10387 10378 10381 10386 10388 10393 10403 10421
10251 10266 10284 10296 10311 10323 10332 10343 10354 10368 10383 10395 10413 10426 10436 10446 10453 10462 10466 10468 10470 10472 10473 10473 10469 10465 10462 10456 10450 10440 10427 10413 10403 10395 10393 10388 10382 10378 10384 10388 10398 10397 10402 10416